This is the latest recevied weather packets stored in our database for station/object N7YET. If no packets are shown the sender has not sent any weather packets the latest 1 day(s).
| Time | Temp. | Humidity | Pressure | Rain* | Wind** | Luminosity | Snow |
|---|---|---|---|---|---|---|---|
| 1778040318 | 2.22° C | 54% | 1231.9 hPa | 0 mm | 0.89 m/s, 330° | - | - |
| 1778039717 | 2.22° C | 52% | 1231.9 hPa | 0 mm | 2.68 m/s, 343° | - | - |
| 1778039117 | 2.78° C | 49% | 1231.9 hPa | 0 mm | 3.58 m/s, 359° | - | - |
| 1778038516 | 2.78° C | 48% | 1231.9 hPa | 0 mm | 3.58 m/s, 2° | - | - |
| 1778037916 | 3.33° C | 50% | 1231.9 hPa | 0 mm | 4.02 m/s, 353° | - | - |
| 1778037315 | 3.33° C | 50% | 1231.9 hPa | 0 mm | 5.36 m/s, 2° | - | - |
| 1778036714 | 3.89° C | 49% | 1231.9 hPa | 0 mm | 5.36 m/s, 9° | - | - |
| 1778036114 | 3.89° C | 49% | 1231.9 hPa | 0 mm | 5.81 m/s, 10° | - | - |
| 1778035513 | 3.89° C | 49% | 1231.9 hPa | 0 mm | 7.15 m/s, 16° | - | - |
| 1778034912 | 3.89° C | 50% | 1231.9 hPa | 0 mm | 7.15 m/s, 14° | - | - |
| 1778034312 | 3.89° C | 50% | 1231.9 hPa | 0 mm | 7.6 m/s, 8° | - | - |
| 1778033711 | 3.89° C | 50% | 1231.9 hPa | 0 mm | 7.6 m/s, 3° | - | - |
| 1778033110 | 4.44° C | 50% | 1231.9 hPa | 0 mm | 7.6 m/s, 6° | - | - |
| 1778032510 | 4.44° C | 47% | 1231.9 hPa | 0 mm | 7.6 m/s, 10° | - | - |
| 1778031909 | 5° C | 44% | 1231.9 hPa | 0 mm | 9.83 m/s, 16° | - | - |
| 1778031309 | 5.56° C | 41% | 1231.9 hPa | 0 mm | 8.05 m/s, 15° | - | - |
| 1778030708 | 6.11° C | 39% | 1231.9 hPa | 0 mm | 8.94 m/s, 14° | - | - |
| 1778030107 | 6.11° C | 37% | 1231.9 hPa | 0 mm | 8.05 m/s, 13° | - | - |
| 1778029508 | 6.67° C | 36% | 1231.9 hPa | 0 mm | 8.49 m/s, 14° | - | - |
| 1778028906 | 7.22° C | 34% | 1231.9 hPa | 0 mm | 7.6 m/s, 12° | - | - |
| 1778028306 | 7.78° C | 33% | 1231.9 hPa | 0 mm | 8.49 m/s, 17° | - | - |
| 1778027705 | 8.33° C | 31% | 1231.9 hPa | 0 mm | 8.94 m/s, 17° | - | - |
| 1778027105 | 8.89° C | 31% | 1231.9 hPa | 0 mm | 8.49 m/s, 15° | - | - |
| 1778026504 | 10° C | 31% | 1231.9 hPa | 0 mm | 8.94 m/s, 18° | - | - |
| 1778025903 | 10° C | 31% | 1231.9 hPa | 0 mm | 9.39 m/s, 23° | - | - |
* Rain latest hour (hover to see other rain measurements)
** Current wind speed in m/s (hover to see current wind gust speed)